Hourly Data Report for April 10, 2021

NANAIMO A
BRITISH COLUMBIA
Current Station Operator: NAVCAN

49°03'16.000" N
123°52'12.000" W
28.00 m
1025365
YCD

Download Data

Hourly Data (April 2021)
Hourly Data Report for April 10, 2021
TIME
LST
Temp Definition
°C
Dew Point Definition
°C
Rel Hum Definition
%
Precip. Amount Definition
mm

Wind Dir Definition
10's deg

Wind Spd Definition
km/h
Visibility Definition
km
Stn Press Definition
kPa
Hmdx Definition


Wind Chill Definition


Weather Definition


00:00 1.2 0.5 95 LegendMM 28 5 LegendMM 101.03     LegendNANA
01:00 0.8 -0.1 93 LegendMM 34 4 LegendMM 101.09     LegendNANA
02:00 3.4 -2.7 64 LegendMM 26 18 LegendMM 101.14     LegendNANA
03:00 2.3 -2.7 70 LegendMM 34 10 LegendMM 101.24     LegendNANA
04:00 0.3 -2.2 83 LegendMM 25 3 LegendMM 101.34     LegendNANA
05:00 -0.7 -1.2 96 LegendMM 27 5 LegendMM 101.46   -2 LegendNANA
06:00 -1.5 -2.1 96 LegendMM 2 4 LegendMM 101.57   -3 LegendNANA
07:00 1.6 -0.9 84 LegendMM 23 10 LegendMM 101.67     LegendNANA
08:00 4.7 -2.6 59 LegendMM 29 13 LegendMM 101.75     LegendNANA
09:00 6.7 -4.8 44 LegendMM 29 14 LegendMM 101.83     LegendNANA
10:00 7.7 -5.8 38 LegendMM 32 14 LegendMM 101.88     LegendNANA
11:00 8.7 -7.5 31 LegendMM 30 23 LegendMM 101.92     LegendNANA
12:00 8.0 -3.8 43 LegendMM 2 30 LegendMM 101.96     LegendNANA
13:00 8.2 -2.8 46 LegendMM 35 22 LegendMM 102.01     LegendNANA
14:00 9.6 -3.7 39 LegendMM 34 18 LegendMM 102.05     LegendNANA
15:00 9.0 -6.1 34 LegendMM 34 21 LegendMM 102.13     LegendNANA
16:00 9.8 -5.0 35 LegendMM 32 22 LegendMM 102.16     LegendNANA
17:00 9.1 -7.2 31 LegendMM 30 23 LegendMM 102.21     LegendNANA
18:00 8.5 -6.7 33 LegendMM 29 10 LegendMM 102.23     LegendNANA
19:00 6.9 -5.5 41 LegendMM 26 9 LegendMM 102.28     LegendNANA
20:00 5.3 -4.9 48 LegendMM 28 8 LegendMM 102.33     LegendNANA
21:00 4.6 -5.1 49 LegendMM 27 7 LegendMM 102.39     LegendNANA
22:00 1.4 -3.6 70 LegendMM 25 4 LegendMM 102.40     LegendNANA
23:00 2.5 -4.4 60 LegendMM 26 8 LegendMM 102.45     LegendNANA

Notes on Data Quality.

Legend

  • E = Estimated
  • M = Missing
  • NA = Not Available*
  • [empty] = Indicates an unobserved value
Date modified: